Regional Weather Roundup
Issued by NWS

Home | Current Version | Previous Version | Text Only | Print | Product List | Glossary Off
Versions: 1 2 3 4 5 6 7 8 9 10 11 12 13 14 15 16 17 18 19 20 21 22 23 24 25 26 27 28 29 30 31 32 33 34 35 36 37 38 39 40 41 42 43 44 45 46 47 48 49 50

948
ASUS43 KMPX 120001
RWRMN
WEATHER ROUNDUP FOR MINNESOTA
NATIONAL WEATHER SERVICE TWIN CITIES/CHANHASSEN MN
600 PM CST THU FEB 11 2016


NOTE: "FAIR" INDICATES FEW OR NO CLOUDS BELOW 12,000 FEET WITH NO
SIGNIFICANT WEATHER AND/OR OBSTRUCTIONS TO VISIBILITY. N/A MEANS
CURRENT SKY AND/OR WEATHER CONDITIONS ARE NOT AVAILABLE.

MNZ060>063-068>070-120100-
   Twin Cities Metro

CITY           SKY/WX    TMP DP  RH WIND       PRES   REMARKS
TWIN CITIES    FLURRIES  15   3  59 SW7       30.24S WCI   5
6HR MIN TEMP:  13; 6HR MAX TEMP:  17; 6HR PCP: TRACE;

ST PAUL        CLOUDY    16   2  54 SW8       30.26R WCI   5
CRYSTAL        FLURRIES  16   6  65 W5        30.23R WCI   9
BLAINE         CLOUDY    18   5  57 SW6       30.23R WCI   9
LAKEVILLE      FLURRIES  14   3  62 SW3       30.23S
EDEN PRAIRIE   CLOUDY    17   2  51 SW8       30.23R WCI   7
6HR MIN TEMP:  13; 6HR MAX TEMP:  17;

SOUTH ST PAUL  CLOUDY    17   2  51 SW3       30.25R
LAKE ELMO      MOCLDY    18   3  53 W7        30.24R WCI   8
$$
MNZ001>005-007-008-013>017-022>024-027-028-120100-
   Northwest Minnesota

CITY           SKY/WX    TMP DP  RH WIND       PRES   REMARKS
BEMIDJI        CLOUDY    10  -1  59 W10       30.17R WCI  -4
HALLOCK        CLOUDY    10   3  72 NW12      30.26R WCI  -4
ROSEAU         CLOUDY    10   5  79 W7        30.20R WCI   0
WARROAD        CLOUDY    10   3  72 W9        30.18S WCI  -2
THIEF RVR FALL CLOUDY    10   1  67 NW8       30.23R WCI  -1
CROOKSTON      FLURRIES  12   9  85 N8        30.26R WCI   1
FOSSTON        CLOUDY     9   1  72 NW8       30.21R WCI  -4
DETROIT LAKES  FLURRIES  14   7  73 NW7       30.20S WCI   4
MOORHEAD       MIX PCPN  12   5  73 N7        30.26R WCI   2
PARK RAPIDS    CLOUDY    13   0  56 NW8       30.16R WCI   2
MAHNOMEN       CLOUDY    10  -1  61 NW6       30.21R WCI   1
$$
MNZ006-009>011-018-025>026-120100-
   North Central Minnesota

CITY           SKY/WX    TMP DP  RH WIND       PRES   REMARKS
BAUDETTE       CLOUDY    10   0  63 W8        30.14S WCI  -2
FLAG ISLAND    PTCLDY     9   1  72 NW15      30.16R WCI  -8
INTL FALLS     CLOUDY    10  -2  58 W8        30.12S WCI  -2
6HR MIN TEMP:   8; 6HR MAX TEMP:  13;

WASKISH        CLOUDY     9   3  78 W9        30.16S WCI  -5
LONGVILLE      CLOUDY    12   0  57 CALM      30.17R
GRAND RAPIDS   CLOUDY    10  -4  52 W6        30.15R WCI   1
CRANE LAKE     CLOUDY     9  -6  52 W1        30.13S
ORR            CLOUDY    10  -4  52 W6        30.09R WCI   1
COOK           CLOUDY    10  -4  52 W6        30.11S WCI   1
WALKER         CLOUDY    13  -3  50 W7        30.16S WCI   2
$$
MNZ012-019>021-037-120100-
   Northeast Minnesota

CITY           SKY/WX    TMP DP  RH WIND       PRES   REMARKS
DULUTH         CLOUDY    11  -5  48 W13       30.11S WCI  -4
6HR MIN TEMP:   7; 6HR MAX TEMP:  12;

ELY            CLOUDY     7  -2  66 W6        30.09R WCI  -3
HIBBING        CLOUDY    10  -7  46 W5        30.12S WCI   2
EVELETH        MOCLDY    12  -4  48 W7        30.12S WCI   2
DULUTH HARBOR  CLOUDY    16   0  48 W13       30.19S WCI   2
TWO HARBORS    CLOUDY    16  -2  45 W9        30.11S WCI   4
SILVER BAY     CLOUDY    12  -6  44 SW3       30.10R
GRAND MARAIS     N/A     11  -1  58 W6        30.12S WCI   1
G MARAIS ARPRT CLEAR      3  -6  66 W6        30.01S WCI  -8
$$
MNZ029>031-032-039>041-046>048-054>057-064-120100-
   West Central Minnesota

CITY           SKY/WX    TMP DP  RH WIND       PRES   REMARKS
FERGUS FALLS   LGT SNOW  12   9  85 NW3       30.25R
WHEATON        FLURRIES  16  12  86 CALM      30.25R
MORRIS         CLOUDY    16   9  73 CALM      30.20R
ALEXANDRIA     LGT SNOW  13   8  81 W5        30.19R WCI   5
ELBOW LAKE     LGT SNOW  13  10  90 NW5       30.21S VSB 3/4 WCI   5
WADENA         FLURRIES  12   7  79 W5        30.18R WCI   4
GLENWOOD       CLOUDY    14   7  73 W6        30.20R WCI   5
APPLETON       CLEAR     12   9  85 CALM      30.22R
BENSON         CLOUDY    16  10  79 CALM      30.21R
ORTONVILLE     MOCLDY    12   9  85 CALM      30.21R
MADISON        CLEAR     18  12  79 CALM      30.21S
WILLMAR        FLURRIES  18  10  73 CALM      30.22R
$$
MNZ033>034-036-042>043-049>051-058-059-120100-
   Central Minnesota

CITY           SKY/WX    TMP DP  RH WIND       PRES   REMARKS
ST CLOUD       LGT SNOW  13   9  84 SW5       30.21S FOG     WCI   5
6HR MIN TEMP:  10; 6HR MAX TEMP:  15; 6HR PCP:  0.01;

SAUK CENTRE    LGT SNOW  13   8  81 W5        30.20R WCI   5
PAYNESVILLE    CLOUDY    15   6  68 CALM      30.21R
AITKIN         CLOUDY    16   0  48 W6        30.17R WCI   7
PINE RIVER     CLOUDY    14   1  57 CALM      30.20R
BRAINERD       CLOUDY    13   3  64 W7        30.19R WCI   3
STAPLES        CLOUDY    12   7  79 W6        30.19R WCI   3
LONG PRAIRIE   LGT SNOW  12   9  85 CALM      30.19R
LITTLE FALLS   LGT SNOW  14  10  85 CALM      30.21R
LITCHFIELD     CLOUDY    16   7  67 CALM      30.21S
BUFFALO        LGT SNOW  15   9  77 CALM      30.23S
MAPLE LAKE     LGT SNOW  16  11  80 CALM      30.22S
$$
MNZ037-044-045-052-053-120100-
   East Central Minnesota

CITY           SKY/WX    TMP DP  RH WIND       PRES   REMARKS
PRINCETON      LGT SNOW  16   9  73 CALM      30.22R
MORA           CLOUDY    14   3  62 W5        30.22S WCI   6
CAMBRIDGE      FLURRIES  16   5  62 CALM      30.21S
RUSH CITY      CLOUDY    14   3  59 W7        30.23R WCI   4
MOOSE LAKE     CLOUDY    14   0  52 W7        30.16S WCI   4
HINCKLEY       CLOUDY    14   3  62 SW6       30.20S WCI   5
CLOQUET        CLOUDY    12  -4  48 W8        30.14S WCI   1
MCGREGOR       CLOUDY    14   1  57 W5        30.18R WCI   6
$$
MNZ071>073-080-081-089-090-097-098-120100-
   Southwest Minnesota

CITY           SKY/WX    TMP DP  RH WIND       PRES   REMARKS
MONTEVIDEO     CLOUDY    16  10  79 CALM      30.23R
GRANITE FALLS  FLURRIES  15  13  89 S3        30.23R
CANBY          CLEAR     20  16  86 CALM      30.21R
MARSHALL       MIX PCPN  16  11  80 SW5       30.21R WCI   9
REDWOOD FALLS  CLOUDY    14  10  84 S5        30.22R WCI   6
OLIVIA         CLOUDY    18  12  79 SW8       30.20S WCI   7
PIPESTONE      FLURRIES  16   9  73 SW5       30.16R WCI   9
WINDOM         FLURRIES  14  10  85 CALM      30.18R
WORTHINGTON    CLOUDY    14   9  79 S9        30.18R WCI   2
JACKSON        LGT SNOW  14   9  79 S9        30.18S WCI   2
TRACY          FLURRIES  17  13  86 SW6       30.19R WCI   8
SLAYTON        CLOUDY    14  12  93 SW6       30.18R WCI   5
$$
MNZ065>067-074>077-082>085-091>093-120100-
   South Central Minnesota

CITY           SKY/WX    TMP DP  RH WIND       PRES   REMARKS
MANKATO        CLOUDY    16   1  53 S7        30.23S WCI   6
NEW ULM        CLOUDY    14   9  79 S3        30.22R
ST JAMES       CLOUDY    16  10  79 S8        30.22R WCI   5
FAIRMONT       CLOUDY    12   7  79 S10       30.20S WCI  -1
GLENCOE        CLOUDY    16   8  71 S5        30.22S WCI   9
FARIBAULT      CLOUDY    14   5  67 S5        30.24S WCI   6
OWATONNA       CLOUDY    14   3  62 SW9       30.23R WCI   2
WASECA         CLOUDY    14   7  73 SW7       30.24S WCI   4
ALBERT LEA     CLOUDY    12   3  67 SW5       30.22R WCI   4
$$
MNZ078>079-086>088-094>096-120100-
   Southeast Minnesota

CITY           SKY/WX    TMP DP  RH WIND       PRES   REMARKS
ROCHESTER      CLOUDY    10   2  69 SW8       30.23R WCI  -2
6HR MIN TEMP:   9; 6HR MAX TEMP:  12; 6HR PCP: TRACE;

RED WING       CLOUDY    16   1  53 SW6       30.24S WCI   7
STANTON        CLOUDY    17   6  61 SW7       30.23S WCI   8
DODGE CENTER   CLOUDY    10   3  72 SW9       30.21S WCI  -2
WINONA         CLOUDY    18   1  49 CALM      30.27S
AUSTIN         CLOUDY    10   3  72 SW6       30.22S WCI   1
PRESTON        CLOUDY    10   1  67 S6        30.22F WCI   0
$$
ABBREVIATIONS USED IN REMARKS
   TC - TEMPERATURES IN CELSIUS
  WCI - WIND CHILL INDEX
   HX - HEAT INDEX
  VSB - VISIBILITY
$$




USA.gov is the U.S. government's official web portal to all federal, state and local government web resources and services.